Featured Flight

MET332 - Boston to Los Angeles

Airbus A321-232
657MT - Sharklet Equipped
5 hrs 40 mins
2267 nm
Scheduled - Daily

Bid/PiRep Status

Bid was submitted on January 10th, 2017 19:07 UTC.
No PiRep on file for this bid.

Departure

Departing from
Boston (BOS)
Departure gate
Scheduled Departure
GMT 1100
Local 0700

Arrival

Arriving at
Los Angeles (LAX)
Arrival gate
Scheduled Arrival
GMT 1640
Local 0940
METAR KLAX 190453Z 23006KT 10SM CLR 21/13 A2991 RMK AO2 SLP127 T02060128
TAF KLAX 190329Z 1903/2006 24009KT P6SM SKC FM190800 VRB03KT 4SM BR OVC005 FM191400 VRB03KT 3SM BR OVC007 FM191800 24006KT 6SM HZ BKN010 FM192000 26011KT P6SM SCT015 BKN250 FM200300 25011KT P6SM BKN010

Route Map

Planning Resources

GLYDE BAF J77 SAX J60 ETX RAV J64 MAINE J64 LMN J64 HEC ZIGGY4
MHT SYR J547 BUF J94 ECK J16 MCW J148 ONL J114 DVV HBU J128 TBC J64 HEC ZIGGY4
GLYDE BAF J77 SAX J80 ETX J60 DJB J60 IOW LNK J60 BCE J60 HEC ZIGGY4
LOGAN4 CTR HEC ZIGGY4
MHT CAM SYR BUF J16 BAE ONL DVV HEC ZIGGY4
Route:
OFP Layout:
Units:
Detailed Navlog:
ETOPS Planning:
Plan Stepclimbs:
Runway Analysis:
Include NOTAMS:
FIR NOTAMS:
Flight Maps:

Return Flights

MET331
Airbus A321-232
1730 GMT
MET335
Airbus A321-232
0530 GMT
MET338
Airbus A321-232
1450 GMT
MET339
Airbus A330-243
1645 GMT
MET348
Airbus A321-232
0430 GMT
MET603
Boeing 787-8
1900 GMT

Popularity

Hub Current Bids PiReps this month Total PiReps
KLAX 0 0 0
KBOS 0 0 0
KDFW 0 0 0